Theta_e
341 341 333 330 327 325 323 319 303 309 307 300 299 302 299 307 306 303 304 305 303 308 309 308 309 311 307 309 309 310 312 309 313 304 309 325 338 342 343 342 343 345 345 347 347 347 349 347 347 347 348 347 347 348 349 348 348 349 349 349 349 349 348 347 348 347 347 346 346 347 346 346 343 341 341 341 340 340 339 339 339 339 339 338 337 340 343 344 345 344 345 345 343 342 341 340 338
336 328 329 329 326 323 314 315 307 303 303 299 298 301 301 304 305 303 302 305 309 309 309 309 309 314 312 312 310 309 314 317 317 319 327 333 338 339 341 343 343 343 345 346 348 347 347 349 346 348 348 349 349 349 349 349 348 349 349 349 348 348 347 348 347 347 346 346 346 346 345 344 342 340 341 341 340 339 339 338 338 338 338 338 338 339 343 346 346 345 345 344 342 340 339 338 336
328 326 325 326 323 318 316 313 303 300 300 296 298 302 305 302 303 305 306 309 310 310 310 310 312 311 310 310 308 308 313 320 322 325 326 335 331 336 342 343 345 344 345 347 347 348 347 347 345 348 348 349 349 349 349 348 349 349 350 349 348 348 347 348 347 346 346 346 346 345 345 343 340 340 340 340 339 339 338 337 338 338 338 338 338 340 343 344 344 343 343 343 341 340 339 339 336
330 327 325 324 316 317 310 308 305 301 299 297 299 302 303 303 304 306 310 309 310 311 310 307 308 315 310 308 310 311 311 319 323 326 325 331 332 339 342 343 346 345 346 347 348 348 348 345 344 348 349 349 349 349 348 349 348 349 348 348 348 348 347 347 347 346 346 345 345 345 344 342 339 339 339 340 339 338 337 337 337 337 338 339 338 338 339 339 342 342 340 340 341 341 339 338 337
329 326 324 322 319 311 311 307 303 302 298 299 298 302 303 305 305 307 308 309 308 309 310 310 310 314 316 313 312 308 317 321 324 330 329 335 339 340 342 345 346 344 345 347 348 348 350 343 345 347 349 349 349 348 348 348 348 348 348 347 348 347 347 347 347 346 345 345 345 345 344 341 339 338 338 339 339 338 337 336 336 337 338 340 340 342 343 343 342 341 342 342 341 340 339 338 335
325 324 328 321 315 315 309 303 302 300 301 303 300 302 304 306 305 308 308 308 309 310 309 308 309 310 308 311 317 314 319 314 324 330 332 332 338 341 342 345 344 344 345 346 348 348 350 341 346 346 349 349 348 348 348 348 348 348 347 347 347 347 347 347 346 346 345 345 345 345 344 340 339 339 339 338 338 338 337 336 336 337 338 339 342 344 345 344 344 343 342 340 341 339 338 336 335
324 320 318 318 315 316 305 303 300 301 301 304 303 303 304 305 307 308 307 307 308 308 308 309 309 309 307 314 315 320 326 327 324 329 337 337 339 339 342 343 345 343 345 346 348 349 351 341 347 348 350 349 348 348 347 347 347 347 347 347 347 347 347 347 347 346 346 345 345 344 343 339 337 338 338 338 338 337 337 336 335 337 338 338 340 341 341 340 340 340 340 339 339 338 336 335 335
324 319 316 310 309 308 304 302 302 303 302 305 305 305 305 306 308 307 306 305 304 305 306 308 309 308 308 314 310 321 323 328 331 334 336 337 339 340 342 341 343 343 344 346 348 349 345 340 346 348 348 348 348 347 347 347 347 346 346 346 347 346 346 347 347 346 345 345 345 344 342 339 336 336 338 338 338 337 336 336 335 335 338 338 338 339 339 340 341 341 340 339 338 337 336 335 334
321 316 320 313 305 307 302 302 302 303 303 304 304 306 310 308 308 307 305 307 307 307 307 309 310 304 307 308 313 319 322 327 329 331 335 336 338 340 340 341 342 344 345 345 348 350 349 338 342 346 347 349 348 347 347 347 346 346 346 346 346 346 347 347 346 345 344 344 344 344 343 338 335 335 337 337 337 337 336 335 335 334 337 336 337 337 338 338 339 339 338 337 337 335 334 334 333
316 315 307 309 310 302 301 301 301 302 303 305 305 305 306 307 307 308 306 305 306 306 309 311 310 305 307 306 309 315 320 325 329 333 335 337 338 340 340 344 344 344 344 345 346 349 348 341 336 340 344 348 348 348 347 346 346 346 345 345 346 346 347 346 345 345 344 343 344 343 342 338 335 335 336 337 337 337 336 335 335 334 334 335 335 335 335 334 334 335 335 335 335 334 333 333 333
309 312 317 306 302 301 300 301 301 303 303 305 305 307 307 308 307 306 307 306 308 305 310 309 306 306 306 307 313 319 323 325 326 330 335 336 340 341 341 345 345 345 344 348 346 349 347 347 337 336 341 341 345 347 348 347 346 346 346 345 346 346 346 346 346 345 344 343 343 343 342 339 336 336 337 337 337 336 337 336 335 335 334 334 333 334 333 332 331 333 334 334 334 333 332 332 332
309 307 311 303 302 301 301 301 301 303 304 304 303 306 308 307 307 304 305 304 305 305 307 308 307 310 305 307 311 317 320 323 328 334 336 338 339 341 342 344 346 344 346 346 347 347 348 347 347 338 334 335 340 343 344 346 347 346 347 346 346 346 346 345 345 345 344 343 342 343 342 339 336 335 336 336 336 335 335 335 335 335 335 334 334 332 332 332 332 333 333 332 332 332 332 331 331
311 313 305 303 303 302 303 300 302 302 303 302 304 306 308 306 304 305 305 305 306 304 305 310 313 308 305 305 313 317 318 322 331 335 336 337 337 340 343 344 345 345 345 346 347 346 348 346 346 346 339 329 330 333 336 339 344 347 347 347 346 346 345 345 345 344 344 343 342 342 341 338 336 335 335 335 334 335 335 335 334 334 334 333 333 331 331 331 331 331 331 331 330 331 330 330 330
313 314 310 303 305 302 301 302 303 300 301 304 306 306 307 305 306 306 306 303 304 304 308 311 310 310 306 308 309 312 317 327 332 334 334 337 336 339 341 343 344 344 346 346 345 345 346 346 345 346 346 345 347 337 330 334 339 344 345 345 345 345 345 346 345 345 343 343 342 341 339 338 336 334 334 333 332 332 334 335 334 334 333 332 329 328 328 328 329 330 330 330 330 330 329 329 329
313 314 308 307 302 302 303 300 301 300 301 305 304 305 306 307 306 306 305 304 305 308 309 310 311 306 303 305 307 311 321 330 331 333 334 335 336 337 339 340 341 341 342 343 342 343 343 345 344 345 346 347 347 345 346 341 330 337 342 342 343 344 344 343 344 342 341 342 340 338 336 334 332 332 333 334 334 332 331 331 333 332 332 329 326 325 326 327 328 328 329 329 328 328 328 327 327
318 311 308 303 300 300 303 301 302 301 302 305 305 307 305 305 306 305 305 306 307 311 308 305 310 306 308 307 315 324 328 329 330 332 332 332 334 335 336 338 338 339 338 340 341 340 341 343 344 344 345 346 346 345 344 346 332 328 337 339 340 341 341 341 339 338 336 335 334 332 330 331 328 329 325 330 329 332 329 329 331 330 330 328 326 325 326 326 327 328 328 328 327 326 326 325 324
315 316 303 301 299 300 303 301 302 298 304 304 304 305 303 303 306 306 306 308 305 306 306 309 308 310 308 309 313 327 328 328 328 330 330 330 332 332 334 336 337 336 336 336 338 338 339 341 341 342 343 344 345 345 344 343 339 329 332 330 333 337 337 336 335 328 326 325 328 325 327 331 331 331 331 330 324 329 322 324 328 329 329 328 326 326 325 326 326 327 327 326 324 322 319 319 320
313 304 302 300 302 301 305 302 303 306 303 304 303 305 304 302 304 305 307 305 305 307 306 308 310 309 311 310 312 325 326 325 327 327 328 329 330 329 331 332 334 333 335 336 333 337 337 340 341 341 341 343 344 344 344 343 342 337 344 343 345 338 331 327 335 343 336 341 326 332 337 332 330 331 331 329 329 328 325 321 324 325 326 325 325 325 325 325 325 325 324 323 322 320 319 317 317
307 304 303 300 303 305 307 305 306 304 304 305 305 305 305 304 305 306 303 304 304 304 305 307 307 309 310 310 314 322 324 325 325 327 327 327 328 328 329 331 332 332 333 334 331 332 335 336 339 340 341 342 343 343 343 343 343 341 342 342 343 336 338 340 342 342 342 341 340 339 337 337 335 331 332 330 330 322 325 321 323 324 324 324 323 322 323 323 322 322 320 319 319 320 317 318 317
307 307 301 301 307 305 307 306 305 306 305 305 304 305 305 306 306 308 303 303 305 303 303 305 305 306 308 310 311 320 324 324 325 326 326 327 328 328 328 330 330 331 332 333 332 332 333 334 335 339 341 340 341 342 343 343 343 342 341 342 343 342 342 342 342 341 341 341 340 339 341 339 337 333 325 324 324 326 324 320 321 322 323 322 321 321 321 320 319 319 318 319 320 316 315 314 313
307 302 301 303 304 303 304 306 305 305 306 305 305 304 303 305 306 306 304 302 303 305 307 306 306 307 309 310 311 318 321 323 324 325 326 327 328 330 330 330 330 331 332 334 335 331 331 333 334 335 338 340 340 340 341 341 342 343 343 342 344 342 340 341 341 341 341 340 340 341 340 341 338 333 330 329 329 326 323 323 323 322 320 319 317 317 315 316 316 317 317 316 314 313 312 311 311
306 302 303 304 304 302 303 305 304 304 303 306 305 302 303 307 305 304 305 301 302 305 307 309 309 311 310 310 311 316 319 321 322 323 325 326 327 328 330 331 332 332 332 331 334 333 334 334 334 335 336 338 339 340 340 340 340 340 342 342 341 341 341 341 340 340 341 340 341 342 340 340 336 332 330 329 329 327 323 322 322 321 319 317 315 313 314 317 318 317 316 314 312 311 310 309 308
300 303 304 304 304 304 304 304 302 303 305 304 303 305 306 304 304 306 305 304 306 307 309 310 309 310 314 313 313 314 317 319 321 322 324 325 326 328 329 330 330 331 331 331 332 331 333 331 332 333 334 336 338 338 338 339 340 340 341 343 342 340 340 340 340 340 340 342 343 339 338 338 337 331 328 329 330 328 325 324 321 320 319 317 315 315 317 319 317 315 313 311 310 309 308 308 307
303 302 303 302 303 303 303 303 301 303 303 304 305 305 303 304 301 306 304 307 309 309 309 310 309 307 310 313 313 313 316 319 320 322 325 326 327 328 330 330 330 331 329 330 332 331 330 330 331 331 332 334 336 337 336 337 339 340 339 341 342 340 341 341 340 340 340 339 339 338 337 338 335 333 332 332 330 330 329 326 322 320 320 319 319 319 318 317 315 313 312 310 309 308 306 305 304
302 302 303 302 303 303 303 302 302 302 303 304 304 303 304 305 304 303 304 307 308 309 309 308 309 308 307 310 313 313 315 317 319 322 324 326 328 330 331 331 331 330 328 329 331 330 328 329 330 330 332 332 335 336 335 335 336 338 339 340 340 338 340 340 339 341 339 339 340 341 340 338 338 333 332 332 332 330 330 326 321 320 321 320 320 319 318 316 313 311 310 309 308 306 305 304 303
305 303 303 303 303 303 303 302 302 302 304 303 302 303 305 303 303 302 305 307 309 310 309 309 309 307 307 308 311 312 313 315 319 320 322 325 327 328 329 329 329 328 329 329 328 328 329 329 328 330 332 332 333 334 334 335 334 335 336 338 340 339 340 341 341 340 341 340 340 338 340 339 338 335 333 332 331 331 329 326 323 322 321 321 321 318 317 314 311 310 309 308 307 305 303 303 302
305 304 304 304 303 303 303 303 303 303 304 303 302 303 303 303 302 300 307 309 309 308 307 308 308 308 308 308 309 311 312 314 317 320 322 323 324 326 329 330 328 327 329 330 329 329 329 328 328 329 329 329 331 331 332 332 334 333 334 337 339 338 340 339 339 340 339 340 341 339 338 339 336 336 334 333 331 330 328 326 325 325 324 324 324 319 318 312 311 310 309 306 305 303 302 302 301
305 305 304 303 303 304 303 304 303 303 302 303 303 302 304 303 303 301 307 306 308 307 307 308 307 307 308 309 309 311 311 314 317 319 318 320 321 322 324 326 326 326 326 327 329 330 328 325 326 327 326 327 327 328 330 330 330 332 333 335 336 338 339 339 339 338 337 339 339 340 339 339 337 337 335 333 331 329 327 325 324 323 322 322 322 318 313 311 310 308 308 306 304 303 301 300 300
304 305 300 302 303 302 303 303 304 304 302 303 304 302 301 302 300 305 307 306 307 307 307 307 308 308 309 310 310 311 312 312 316 317 318 320 321 321 321 325 326 326 328 329 329 328 326 325 326 326 326 325 325 326 327 328 329 329 331 332 334 336 336 335 335 336 337 338 338 338 338 339 337 336 334 333 329 329 325 323 322 321 320 319 317 314 312 309 307 304 303 303 302 302 300 299 301
305 304 303 300 300 300 304 305 304 303 303 304 303 294 299 302 304 306 308 307 306 306 306 307 308 308 309 310 310 311 311 312 312 316 317 318 319 319 319 323 325 327 327 327 327 325 324 325 324 324 323 323 323 324 325 326 328 329 331 331 332 334 334 333 332 334 335 336 337 337 336 337 336 335 334 332 330 328 324 322 321 320 319 318 316 313 310 309 306 303 303 301 301 299 298 298 297
301 302 302 299 298 298 303 304 303 301 303 303 303 295 298 303 306 307 306 307 306 305 306 307 308 308 309 310 310 309 310 312 312 313 315 317 318 320 320 321 323 325 324 323 324 323 323 321 321 320 320 321 320 321 322 323 326 328 330 331 331 332 332 332 332 332 332 333 334 335 336 336 335 336 335 331 329 327 323 322 320 319 319 317 314 311 309 308 305 302 302 300 300 298 297 297 296
303 297 295 300 297 300 301 303 303 300 301 304 302 296 298 302 305 304 305 304 305 304 306 307 308 308 309 309 309 310 310 311 313 313 314 315 317 319 319 320 320 321 321 321 321 321 321 319 319 319 319 319 320 320 321 322 323 326 328 326 329 330 330 329 330 330 330 331 331 332 333 333 333 334 333 332 328 326 324 321 320 319 317 314 312 311 310 308 307 304 303 301 298 296 296 295 296
301 297 299 298 298 299 299 300 302 301 302 302 301 297 301 301 305 305 304 305 304 304 305 307 308 308 308 308 309 309 310 310 312 312 313 314 316 317 318 319 319 319 320 320 319 319 319 318 318 318 318 318 319 320 322 322 323 324 326 325 325 325 328 328 326 327 326 326 328 330 331 331 332 332 331 330 328 325 323 321 320 318 315 312 311 310 310 308 304 303 301 301 298 296 295 294 295
297 299 296 300 296 297 295 299 301 303 301 299 301 298 299 302 304 306 304 306 305 304 306 307 307 308 308 309 309 309 309 310 310 312 312 313 314 315 316 315 318 318 319 320 320 319 318 318 318 317 318 319 319 320 319 319 321 322 323 323 321 320 322 324 324 322 322 322 324 325 326 329 330 332 331 329 326 324 322 319 318 316 314 312 311 309 308 307 306 303 299 298 297 295 293 293 292
296 297 295 296 297 297 296 297 299 301 300 299 300 299 300 302 304 305 306 307 305 305 305 306 306 307 308 308 309 309 310 310 310 312 313 313 313 314 314 315 317 317 317 318 319 319 318 318 317 317 318 318 318 318 317 318 318 319 321 318 316 317 316 317 318 319 317 319 320 320 320 323 326 329 328 327 325 323 321 318 316 315 314 312 310 308 306 305 302 300 297 295 296 295 293 293 292
296 298 297 297 296 296 296 298 299 300 299 298 298 297 299 301 303 305 306 307 306 306 307 306 306 307 307 307 308 309 310 310 312 314 315 314 313 313 313 314 315 316 316 317 317 317 317 317 317 316 316 317 317 317 316 314 314 315 316 314 314 313 312 312 313 314 314 315 316 318 318 319 321 323 324 324 320 317 315 314 313 314 313 311 309 307 305 302 300 298 296 294 293 293 294 293 293
297 298 297 295 296 297 299 299 299 300 297 297 298 299 299 300 302 304 305 306 305 305 305 305 306 306 307 307 308 309 310 311 317 316 315 314 314 313 313 313 313 314 315 315 315 315 315 315 315 314 315 315 315 314 313 312 313 314 315 313 313 311 310 310 310 310 311 312 313 314 316 316 316 317 318 318 317 314 313 313 313 312 312 310 308 306 304 302 299 297 295 294 293 291 292 293 293
297 297 297 295 298 295 299 298 298 300 297 297 299 299 299 300 302 303 304 304 303 304 304 306 306 306 307 308 309 310 311 315 318 314 312 313 312 312 312 312 311 312 313 314 314 314 315 315 314 314 314 314 314 314 313 313 314 314 315 315 316 310 307 308 308 308 309 309 310 311 312 313 314 314 314 315 314 314 311 311 311 311 310 309 308 307 305 300 299 295 294 292 293 291 290 292 292
298 296 297 296 297 300 300 298 298 299 297 296 299 297 298 300 301 303 303 303 304 305 306 306 306 307 307 308 309 309 311 312 315 313 312 311 312 311 310 311 311 312 313 313 314 314 314 314 314 314 313 313 313 313 313 313 314 316 317 316 316 310 307 306 308 308 308 307 307 308 308 310 310 309 310 311 311 311 311 310 310 310 310 309 307 304 302 298 296 295 294 292 291 293 292 293 293
297 297 295 294 299 294 292 296 298 298 297 295 297 295 297 300 301 302 304 304 304 306 306 307 308 307 307 308 309 309 310 311 311 313 311 309 310 309 309 309 310 311 312 312 313 313 313 313 314 313 313 312 312 313 313 314 315 313 308 311 311 310 306 302 303 303 304 305 304 304 304 307 308 307 308 309 309 310 311 311 311 310 310 309 306 302 299 297 295 294 294 294 294 291 292 292 295
299 298 297 296 297 298 295 295 298 299 298 298 296 296 297 300 299 301 305 306 306 306 307 307 308 310 310 312 312 312 309 310 311 312 312 309 309 308 308 309 310 310 311 312 313 313 313 313 313 313 312 311 312 312 312 313 307 306 304 303 303 302 302 303 302 301 302 303 302 302 302 302 304 306 307 308 308 308 310 311 310 310 309 307 305 302 299 297 296 295 295 294 295 293 292 293 296
296 300 298 297 297 296 297 298 296 294 294 296 298 290 291 299 301 301 303 305 304 306 305 306 307 308 309 308 309 311 312 312 311 311 312 310 309 309 308 308 309 310 311 313 313 314 313 313 313 313 312 311 311 311 310 308 309 306 303 302 301 301 300 299 301 301 300 300 301 303 301 300 301 302 303 305 306 307 308 309 310 309 308 307 305 302 300 298 297 296 296 296 296 297 295 295 295
294 295 300 299 297 298 298 296 296 290 288 296 298 288 286 296 296 299 301 301 301 304 305 306 307 308 308 310 310 310 311 311 311 311 311 310 309 308 308 308 308 309 311 313 314 313 313 313 313 313 312 311 311 311 308 307 307 306 305 305 305 304 303 302 304 304 303 303 303 301 300 298 299 300 300 302 303 305 307 309 309 309 307 305 305 303 301 299 298 298 298 298 298 299 298 295 294
293 297 300 298 299 298 298 297 297 294 299 299 296 295 288 289 295 299 300 299 300 301 303 304 306 308 309 309 310 311 311 311 311 310 310 309 310 308 307 308 308 309 311 313 313 313 312 312 312 312 311 310 310 310 307 307 306 306 307 307 307 306 307 305 304 303 302 301 299 298 298 297 296 297 298 298 300 301 304 306 307 308 307 306 305 304 302 300 300 300 300 300 300 300 299 297 296
297 297 301 299 297 299 298 297 295 296 294 289 294 297 289 289 296 300 300 297 298 300 302 304 306 309 310 311 310 309 308 308 308 309 309 308 308 308 308 308 309 310 311 312 312 312 312 312 311 312 310 309 309 308 306 306 306 306 307 309 308 309 310 309 305 302 299 297 298 296 295 295 295 295 295 297 298 300 302 304 305 306 306 306 305 306 304 302 301 301 300 300 300 300 300 301 297
297 300 300 300 301 300 298 296 295 294 290 287 292 296 288 288 295 297 300 298 298 300 302 304 306 310 311 310 309 308 306 307 308 307 307 308 308 308 308 309 308 309 311 313 312 312 311 311 310 310 309 309 307 306 305 305 305 305 306 308 309 309 305 302 302 299 297 295 296 294 294 294 293 294 294 295 297 297 300 303 304 306 307 307 305 307 305 303 302 302 301 301 302 301 301 302 298
300 302 300 299 298 298 296 296 294 290 286 289 296 296 292 286 294 296 296 297 299 301 302 305 308 310 309 308 308 309 306 307 307 307 305 306 306 307 307 307 307 308 311 311 311 310 310 310 310 309 309 309 306 305 305 304 305 305 306 308 308 308 305 301 299 297 296 295 294 292 292 292 294 293 292 293 296 298 297 299 301 304 306 305 305 306 304 304 304 303 303 304 302 302 302 301 299
303 299 296 296 294 295 293 291 292 285 284 293 295 295 295 285 291 297 299 302 301 303 301 302 304 306 309 309 306 305 306 306 306 305 304 304 303 304 305 305 306 307 309 310 310 310 310 310 309 308 308 308 306 304 304 304 304 305 306 308 308 307 303 300 300 298 296 295 294 293 292 291 291 291 292 293 293 295 296 298 299 301 302 302 303 304 304 304 303 303 302 302 302 303 301 299 298
300 296 295 288 286 288 284 288 284 284 284 289 291 295 292 290 293 298 301 301 302 303 303 303 304 305 311 309 307 307 307 306 306 306 306 304 304 303 303 304 305 307 308 309 309 309 309 309 308 307 306 307 305 303 303 303 303 304 305 306 306 304 302 302 302 299 296 295 294 293 292 291 291 290 291 292 293 294 295 296 298 300 300 301 303 304 304 303 302 301 301 301 301 300 299 298 297
295 293 292 287 283 283 281 285 287 287 289 290 291 295 288 293 296 300 300 302 303 304 305 307 307 307 308 311 308 306 306 307 307 307 307 306 305 305 304 304 305 306 308 308 309 308 308 308 307 306 306 306 305 303 302 302 302 303 304 305 305 302 301 300 301 300 297 297 296 294 292 292 291 292 291 292 293 294 295 296 298 299 300 301 301 301 301 301 301 300 300 299 299 298 298 298 297
294 299 295 290 288 284 281 284 282 283 286 287 292 287 286 287 293 301 302 303 304 304 305 307 309 309 310 309 310 308 306 306 308 308 307 307 306 305 304 304 305 306 307 308 308 308 308 307 307 306 305 306 304 302 302 302 302 302 303 304 303 301 300 299 299 299 298 298 297 296 294 293 293 293 293 293 294 294 295 296 297 298 299 299 299 299 299 298 299 298 298 297 296 296 296 295 294
297 298 300 292 289 294 285 287 286 286 286 285 286 286 292 293 301 302 303 302 302 303 304 305 306 307 309 308 309 308 307 305 306 307 308 307 306 305 305 305 305 306 307 307 307 307 307 306 306 306 305 305 304 302 301 302 302 301 302 303 302 300 299 299 299 300 299 299 297 296 295 295 295 296 295 295 294 294 295 296 296 297 297 297 297 297 297 296 297 295 294 294 292 295 293 292 292
294 296 290 294 298 295 289 286 287 285 284 282 290 289 293 298 298 299 300 301 302 304 304 304 305 306 307 308 308 311 308 306 306 307 308 307 305 305 305 305 306 306 307 307 307 307 307 306 306 305 305 305 305 303 302 302 302 301 301 301 300 299 299 299 299 299 300 299 298 296 295 295 295 295 295 294 294 294 295 295 295 295 295 295 295 294 294 294 294 293 292 291 291 291 291 290 290
297 289 294 300 302 299 291 284 287 285 281 283 289 286 288 289 286 300 299 298 299 300 302 303 304 306 306 309 309 312 307 307 308 309 309 308 305 304 304 305 306 306 307 307 307 307 307 307 306 305 305 304 305 303 301 301 301 300 300 300 300 299 299 299 300 300 298 297 295 294 295 294 293 294 293 293 293 293 294 293 293 292 292 293 292 292 292 292 292 291 291 290 290 290 289 288 288
298 294 304 292 286 285 290 287 280 280 280 283 287 289 289 290 290 296 297 296 298 300 302 302 303 304 305 307 310 308 308 308 308 307 307 306 305 304 304 304 305 306 307 307 307 307 307 307 306 306 305 305 305 303 301 301 301 300 300 299 299 298 298 299 299 297 297 296 294 292 293 294 293 292 291 291 291 290 290 291 291 290 291 290 291 291 291 290 290 289 289 288 288 288 287 287 287
300 300 297 301 295 290 287 287 287 286 281 282 283 287 285 294 294 296 296 298 299 301 301 302 303 305 305 307 310 309 308 308 308 308 307 307 306 304 304 303 304 305 306 307 307 307 306 306 306 305 306 306 305 302 301 300 300 299 299 298 297 297 297 297 297 294 293 294 293 292 292 292 292 291 290 290 289 289 289 289 289 289 289 289 289 289 289 289 289 288 287 287 287 287 286 285 284
290 291 291 294 292 297 294 294 288 286 283 283 283 282 287 295 299 299 299 300 301 301 302 305 305 306 307 308 310 312 310 308 308 308 308 307 305 304 303 303 304 305 306 307 307 306 306 306 305 305 304 304 304 303 301 301 300 299 298 297 296 296 296 296 296 293 292 292 292 292 292 291 289 288 289 289 288 288 288 288 288 288 288 288 288 288 288 288 287 287 286 286 286 285 284 283 283
293 292 290 292 289 287 284 283 294 288 286 283 283 282 289 297 301 301 301 302 304 304 305 306 307 307 308 311 308 307 309 308 309 309 308 306 304 303 302 302 303 304 305 305 306 306 305 305 305 305 304 304 304 303 302 301 300 299 298 297 295 296 296 296 294 292 291 291 290 290 290 289 288 288 288 288 288 288 287 287 288 288 287 287 287 287 287 287 286 285 285 286 284 283 282 282 282
Wind_Speed
10 7 4 4 3 4 5 5 5 4 6 3 4 4 6 2 2 5 4 6 5 4 4 2 2 1 4 5 8 6 8 7 6 6 4 4 5 8 8 7 8 8 9 8 8 8 8 5 3 7 10 9 8 9 9 9 8 10 9 10 11 12 13 12 12 12 12 13 13 15 16 16 16 16 16 16 16 15 14 15 15 14 13 13 14 15 16 16 16 18 20 21 20 19 19 19 19
7 4 3 3 3 3 3 1 5 3 3 5 5 1 7 6 5 4 6 3 7 4 3 2 1 2 2 5 6 5 6 8 8 7 7 9 8 5 7 7 8 9 8 8 8 8 8 8 3 6 8 10 10 10 10 10 9 10 9 10 10 11 11 12 12 12 13 13 14 15 16 15 15 16 16 16 16 16 14 15 15 14 14 14 14 15 17 20 19 19 21 20 19 19 19 19 18
5 5 3 3 4 5 3 3 4 2 2 5 5 5 5 6 5 5 7 8 7 6 4 4 2 2 5 5 5 4 5 4 7 9 7 11 9 7 8 7 8 8 9 7 8 8 9 7 4 4 9 10 10 10 9 9 10 9 9 10 11 11 10 11 12 13 13 13 14 15 15 15 15 16 16 17 17 16 14 14 14 14 14 14 15 15 17 18 18 19 20 20 19 18 19 18 17
6 2 4 3 3 4 6 3 3 3 3 3 6 5 5 4 6 8 8 8 7 5 4 4 4 3 4 4 6 5 4 6 6 7 6 9 4 9 8 8 8 7 8 6 7 7 7 8 5 5 8 10 10 9 10 10 10 10 10 11 11 10 11 11 11 12 13 13 14 15 15 15 16 16 17 17 16 16 14 13 14 14 15 14 15 15 15 16 18 19 18 18 19 19 19 19 17
4 2 3 4 6 4 4 2 3 3 3 4 5 5 5 3 8 8 8 7 6 4 1 3 1 3 3 6 4 5 6 8 5 3 7 7 6 8 8 8 7 8 8 8 8 8 9 9 5 5 7 9 9 8 9 9 9 10 10 11 11 11 12 11 11 12 13 13 14 15 15 15 15 16 16 16 16 15 14 14 15 14 15 16 15 17 18 18 18 19 19 20 20 19 19 17 16
2 3 3 4 3 4 4 5 3 3 6 4 2 6 5 6 8 9 9 7 6 3 3 3 4 2 3 2 3 2 3 1 7 5 5 7 7 8 8 8 8 8 8 8 7 7 9 8 5 3 7 8 8 8 7 8 9 9 10 10 11 11 11 12 11 12 13 13 14 15 14 15 15 16 16 16 15 15 15 14 14 14 15 15 17 18 18 19 19 19 19 20 20 19 18 16 16
1 3 3 4 2 2 5 1 3 3 5 3 6 6 6 7 9 10 9 8 4 3 2 1 1 3 5 4 3 4 6 3 5 5 5 8 6 5 9 8 8 8 8 8 7 7 11 7 5 5 4 6 8 7 7 8 8 8 9 10 10 11 11 11 11 12 13 13 14 14 14 14 15 15 15 15 15 15 15 14 13 15 15 14 15 16 17 18 18 19 19 19 18 18 17 16 16
1 3 3 5 3 4 1 0 3 3 4 4 3 5 6 7 9 8 9 6 8 5 7 3 4 6 4 1 1 5 5 6 7 7 8 8 8 7 7 9 8 8 8 8 7 8 9 7 5 4 2 7 7 7 8 7 7 8 8 9 10 10 11 11 11 12 13 14 14 14 14 14 15 15 15 15 15 15 14 14 13 14 15 15 16 17 16 17 18 19 20 19 18 18 16 15 15
3 5 1 4 4 2 2 1 4 3 5 3 5 6 5 7 7 7 7 3 6 2 7 6 3 5 5 5 3 7 6 7 6 7 6 7 7 8 6 8 9 8 8 8 7 8 8 7 6 4 2 4 6 7 6 7 7 8 8 9 9 9 10 11 11 12 13 13 14 14 14 14 15 15 15 15 14 14 14 14 13 13 15 14 15 16 17 17 17 18 18 17 17 17 16 15 15
4 4 4 4 2 4 1 3 3 4 4 4 4 7 6 6 6 4 7 5 3 4 4 4 2 4 1 2 6 6 6 7 8 7 6 7 7 6 7 6 8 9 9 8 8 7 7 8 7 6 2 2 5 4 7 6 6 6 7 8 9 9 9 10 11 12 13 13 13 13 14 14 14 15 15 15 14 14 13 13 13 13 14 14 14 14 14 14 15 16 17 16 17 16 16 16 15
5 4 3 5 5 1 3 5 2 4 4 5 4 5 7 6 6 5 4 3 5 2 6 3 4 6 3 2 4 5 8 8 8 9 7 6 6 7 7 8 7 9 9 8 8 8 8 8 8 6 6 4 2 2 2 6 7 6 6 7 9 9 9 10 11 11 12 13 13 14 13 14 14 14 14 14 14 14 13 13 13 14 14 15 15 15 15 15 15 16 16 16 16 16 16 16 15
4 5 4 5 3 2 2 2 3 5 4 5 6 8 5 8 6 6 6 5 6 4 4 7 1 1 5 4 4 6 7 7 6 8 8 7 7 8 6 5 7 8 8 8 8 9 8 8 7 7 6 4 5 3 2 2 5 6 5 8 9 9 9 10 11 11 12 13 13 13 13 14 14 14 14 14 14 14 14 13 13 14 14 15 16 15 15 15 15 16 16 17 17 17 16 16 15
5 3 6 6 1 2 4 4 3 2 3 6 6 7 7 9 8 7 7 4 5 6 6 8 3 3 5 3 5 7 8 8 7 9 8 7 6 6 0 2 3 7 7 6 7 7 9 8 8 8 6 4 6 6 3 3 1 5 5 7 9 9 9 10 10 11 12 13 13 13 13 13 13 14 14 14 14 13 14 14 13 14 15 15 15 15 15 16 16 17 17 17 17 17 16 16 16
4 2 4 4 1 3 3 1 2 3 4 6 6 9 9 7 8 3 4 7 6 5 5 5 3 2 6 3 5 6 7 10 9 8 7 7 5 6 4 3 2 4 4 6 5 6 6 7 7 8 7 7 7 5 6 4 3 1 6 7 7 8 7 8 8 10 11 10 10 11 11 11 12 13 13 14 14 14 13 11 13 14 15 15 15 16 16 16 17 17 17 17 17 16 16 16 15
3 1 4 2 2 3 2 4 1 3 1 10 8 10 9 3 0 2 5 7 5 8 5 1 1 2 3 5 6 6 10 11 9 8 8 8 6 5 5 4 4 5 4 5 6 5 5 7 7 7 8 8 8 7 6 4 4 3 5 8 7 8 8 7 7 9 10 10 11 11 11 11 10 11 11 11 11 11 11 12 14 14 15 16 16 16 16 17 17 17 17 17 17 16 16 16 15
4 3 4 5 5 5 5 6 1 3 3 8 8 9 9 5 2 5 1 5 4 2 1 4 4 3 5 5 8 9 11 10 8 8 8 8 7 6 5 5 5 5 4 5 6 5 4 4 5 6 7 8 7 6 6 6 5 5 2 6 9 8 8 8 9 9 10 10 11 12 12 11 10 10 11 10 10 10 10 11 12 14 16 16 16 16 17 17 17 17 17 17 17 16 16 15 15
2 3 4 5 5 5 4 4 4 3 7 8 8 10 9 7 6 1 3 2 4 4 5 3 4 2 4 5 6 8 9 8 7 9 9 8 7 5 5 7 6 5 4 4 4 6 4 6 5 4 5 6 7 7 6 6 5 3 4 4 7 9 9 8 10 10 9 10 11 12 12 10 10 9 9 10 10 9 10 11 12 14 16 16 16 16 16 16 16 16 17 17 17 17 15 16 14
2 5 6 6 3 5 5 4 5 5 1 8 10 10 8 7 6 5 3 4 7 3 5 5 2 2 4 7 5 7 8 8 8 10 10 8 8 7 6 8 8 8 7 6 3 6 6 7 7 7 5 6 6 6 5 6 5 2 5 6 6 8 9 9 8 8 9 8 9 10 8 9 8 8 9 10 9 10 10 11 12 14 16 16 15 16 16 17 17 17 18 18 16 13 10 8 8
5 5 5 5 4 4 3 2 4 1 3 5 8 8 8 2 10 6 6 7 9 8 8 7 7 7 8 8 8 9 9 9 10 10 11 11 9 11 9 8 10 9 8 7 5 6 5 5 8 8 7 6 6 5 4 5 7 6 3 4 5 7 8 8 8 9 9 9 9 8 7 6 8 9 8 8 8 10 10 11 12 13 15 14 16 16 16 16 16 15 14 13 10 7 7 5 6
1 4 5 4 6 6 5 3 4 6 2 3 7 7 6 4 3 7 7 6 7 9 7 9 9 10 12 10 10 10 10 10 10 11 12 12 11 11 11 11 10 10 10 8 7 5 6 7 6 8 9 7 7 5 5 5 6 6 6 6 6 6 8 8 7 8 7 8 8 8 4 6 6 7 12 16 12 9 9 11 13 13 13 13 15 12 14 14 15 14 12 8 6 6 6 6 6
3 4 4 4 4 1 4 3 5 5 3 2 5 5 7 4 4 5 4 8 8 8 9 8 9 11 13 12 12 11 11 11 11 11 12 12 12 10 10 11 11 9 8 9 7 7 7 7 7 5 6 8 8 6 6 6 6 6 7 7 6 6 6 7 7 7 6 8 9 7 6 6 6 8 9 9 8 9 9 9 9 8 8 9 9 9 8 8 8 6 5 6 6 6 6 6 6
2 2 5 3 2 1 4 3 4 4 2 2 5 7 7 5 2 7 8 8 6 2 3 9 7 5 9 13 13 11 12 12 13 13 14 14 14 13 11 10 11 10 9 10 11 10 11 9 7 6 7 7 9 7 7 6 6 6 6 7 8 6 7 7 8 7 7 7 7 3 4 7 8 8 8 8 8 9 9 9 7 7 8 8 8 8 8 7 6 5 6 6 6 6 7 6 7
4 4 2 4 4 3 3 2 2 4 1 4 6 2 5 5 4 8 10 12 5 6 6 8 8 6 6 9 12 12 12 14 14 15 15 15 14 13 12 10 11 10 8 9 8 9 11 10 7 5 6 6 8 8 7 6 7 6 5 6 7 8 8 8 8 8 8 8 5 7 7 5 6 8 9 8 8 8 8 8 8 7 8 7 8 7 7 6 6 6 6 6 7 7 7 7 7
5 1 4 4 4 4 3 3 1 0 3 1 4 3 5 4 9 3 9 12 12 6 6 7 6 5 4 9 11 12 14 14 15 15 14 14 14 14 12 12 11 8 7 9 9 9 8 10 9 7 6 6 6 6 7 8 7 5 4 5 7 7 7 7 7 8 8 9 7 7 7 6 7 8 8 9 8 8 7 7 7 7 7 7 7 7 7 6 6 6 7 7 7 7 8 7 7
5 3 3 4 1 3 2 2 2 0 1 3 2 4 6 4 3 2 11 13 10 7 6 5 5 4 5 7 10 10 11 12 13 13 11 10 11 11 11 9 9 9 10 11 9 8 9 8 9 9 8 8 7 8 8 7 7 7 7 5 6 5 8 8 8 8 7 8 9 7 8 8 7 8 9 8 8 7 7 6 7 7 6 6 6 6 6 6 6 6 6 7 6 6 7 7 7
1 5 5 4 3 4 4 4 2 1 1 1 3 6 2 1 3 10 15 12 8 5 4 4 5 5 6 8 9 10 11 13 12 12 13 10 9 12 13 12 10 12 11 12 10 8 8 9 8 9 9 8 7 9 8 8 8 9 8 8 6 4 6 6 8 8 7 8 8 9 8 8 6 7 7 6 8 7 7 7 6 5 5 4 4 4 5 6 6 6 6 6 7 7 7 7 7
2 6 4 3 5 4 2 2 4 1 1 2 4 5 4 4 3 7 8 3 5 4 7 5 5 8 9 8 9 10 11 12 13 10 9 10 10 11 12 12 12 12 11 12 11 9 8 9 9 9 8 7 5 7 7 8 9 10 9 7 6 5 5 6 7 7 7 6 6 8 9 9 9 6 7 8 9 6 8 7 6 4 4 4 5 5 3 5 6 6 6 6 6 7 7 7 7
3 6 6 5 4 2 4 3 4 4 3 3 4 6 3 3 4 13 2 2 2 6 8 8 7 9 8 8 8 8 9 9 9 10 13 13 11 11 12 12 13 11 12 13 10 10 9 10 10 9 9 7 7 8 7 7 7 10 10 9 8 5 4 4 5 5 7 8 6 5 7 6 3 8 8 8 8 9 8 7 6 6 5 5 5 6 6 5 4 5 5 6 6 7 8 7 7
5 4 5 6 5 5 7 6 5 5 2 3 1 7 11 9 11 15 8 6 5 5 5 6 7 7 8 8 7 7 8 8 8 9 12 11 10 9 13 13 12 11 9 11 10 10 11 10 10 10 9 8 8 9 8 7 8 8 9 10 9 7 7 3 3 3 5 5 5 8 6 6 7 8 9 10 8 9 7 8 6 6 7 7 7 8 8 7 6 6 7 6 6 7 8 8 7
3 5 5 5 6 7 9 4 3 5 3 3 1 5 5 13 20 11 8 6 5 6 8 8 7 7 7 8 7 7 7 8 10 10 10 10 10 10 12 12 12 11 9 9 11 11 9 6 6 6 7 8 7 7 8 7 8 8 9 9 8 8 7 6 4 4 4 3 4 7 8 8 4 5 8 9 10 9 7 8 7 7 7 8 7 7 8 7 7 7 7 7 6 7 8 8 8
4 3 2 5 5 4 6 5 5 6 5 4 2 7 8 4 3 8 5 4 6 9 9 9 8 8 7 7 7 8 9 9 11 11 11 11 10 9 11 11 12 12 8 9 12 11 11 7 6 6 6 7 7 7 8 8 7 8 9 8 9 8 6 6 7 6 5 6 7 6 7 7 9 7 5 9 9 9 8 7 7 7 8 8 8 8 8 8 7 8 7 8 7 6 8 8 8
2 4 6 5 6 5 6 4 6 8 4 5 5 7 10 11 3 4 4 2 4 8 8 8 8 8 7 7 8 8 9 9 11 11 11 12 11 9 10 11 11 12 12 10 10 10 11 9 8 7 7 8 7 8 7 8 8 8 8 6 4 3 4 4 7 7 7 7 7 6 6 6 6 8 4 5 6 7 9 9 9 9 10 8 8 8 8 8 6 7 5 6 8 7 8 8 7
5 7 2 5 5 4 6 4 1 1 4 6 11 6 2 2 5 4 4 3 5 7 9 8 8 8 8 8 7 7 8 9 10 11 12 11 11 10 10 12 11 12 11 11 11 11 11 10 9 9 9 9 8 8 7 7 8 8 8 3 3 4 7 8 7 7 6 6 6 7 7 8 8 7 7 8 6 5 7 8 10 12 9 10 9 8 7 7 8 7 6 4 5 9 8 10 8
7 6 6 3 6 4 5 5 3 3 5 6 11 9 11 10 6 4 7 7 6 5 7 8 9 8 9 8 8 9 9 9 10 11 13 13 10 13 11 11 12 12 12 12 11 11 11 10 9 8 7 8 7 7 6 6 6 6 6 6 6 4 4 5 5 5 5 5 5 4 3 5 7 8 10 9 9 7 8 10 11 11 10 9 9 9 8 7 7 7 7 5 5 8 8 9 9
7 7 6 5 6 7 4 3 6 5 5 8 8 12 15 13 13 15 11 9 9 11 12 13 14 13 12 11 10 11 10 10 11 9 11 14 12 12 11 12 12 12 11 13 12 11 9 9 8 9 8 8 7 7 7 8 8 7 7 7 6 5 3 2 2 3 3 5 5 4 2 3 5 7 6 9 11 10 10 11 11 9 10 9 9 9 9 8 7 7 8 8 6 5 8 7 8
3 3 5 3 3 6 6 4 5 2 5 7 10 11 13 11 12 11 11 13 14 13 12 11 12 12 12 12 12 12 11 13 9 8 10 11 11 11 11 11 11 11 11 12 13 11 11 10 9 8 9 9 8 8 8 8 8 8 9 6 6 5 3 3 2 2 2 3 3 5 4 3 4 4 5 7 8 7 7 7 9 11 10 10 9 9 9 9 11 10 7 11 10 8 7 7 8
4 3 4 4 4 5 6 6 3 1 4 10 11 13 15 14 12 12 13 13 15 15 14 14 13 12 11 11 12 13 13 12 5 8 9 10 11 10 10 10 10 11 12 12 13 12 12 11 10 11 9 9 8 8 9 9 10 10 10 8 8 5 4 3 3 2 2 2 3 3 4 4 2 3 5 6 8 8 7 7 10 9 9 10 10 10 10 10 9 9 8 7 12 10 6 6 7
5 4 4 5 3 5 4 3 3 2 4 6 8 10 15 15 13 13 13 14 18 17 16 16 15 14 12 13 14 14 12 5 8 7 9 10 9 11 10 9 11 13 13 13 14 13 13 12 12 11 10 10 10 9 9 10 10 10 9 8 7 5 4 4 4 3 3 2 3 3 3 4 5 4 5 7 8 10 9 8 9 11 10 9 7 7 7 7 10 9 10 8 3 10 8 9 9
4 6 3 4 5 4 4 6 3 2 2 7 8 10 15 17 15 14 14 16 17 17 16 15 14 12 12 12 13 13 10 10 9 11 11 10 11 11 10 9 10 12 12 13 13 13 13 12 11 11 10 10 10 10 10 9 9 8 9 9 10 4 3 2 2 3 3 3 3 2 2 4 4 5 6 7 8 9 10 12 11 10 11 11 10 10 9 10 8 9 10 11 9 6 7 8 10
5 5 6 5 2 2 3 4 2 4 3 7 10 12 14 18 17 19 18 17 18 18 17 15 12 13 15 15 12 11 12 11 11 10 12 11 12 11 10 10 10 11 11 12 13 14 11 11 11 12 11 10 9 10 10 10 9 4 3 3 3 3 4 3 3 2 2 3 3 2 1 3 4 6 6 6 7 8 9 11 12 12 11 9 9 11 10 8 7 8 10 12 12 12 8 8 9
7 7 6 6 3 5 6 2 3 6 6 4 9 11 12 12 12 10 9 10 12 14 13 12 12 13 14 9 9 12 14 12 10 9 9 11 11 12 12 10 9 11 12 12 13 13 10 13 12 12 10 11 9 10 11 8 6 6 4 5 4 5 4 3 2 2 3 3 3 3 3 1 2 4 5 6 7 9 8 9 11 11 11 11 9 9 11 11 11 10 13 12 12 12 11 8 7
6 9 9 8 7 9 2 3 7 4 5 5 4 7 5 1 7 7 4 2 8 9 10 11 11 12 10 11 12 10 10 10 10 9 7 10 11 10 11 11 11 11 12 11 12 12 11 10 11 11 9 9 9 11 10 6 8 7 6 6 6 5 5 6 7 7 6 5 6 4 4 2 2 3 3 6 6 7 9 11 11 11 11 11 10 8 8 9 10 11 12 11 11 9 10 10 8
7 1 3 9 10 5 4 6 4 4 4 3 3 4 9 2 9 9 9 11 14 12 10 11 11 10 9 8 8 8 7 7 7 8 8 8 9 10 11 12 12 12 11 10 10 11 11 10 11 11 9 8 9 10 10 7 8 8 8 7 6 6 5 4 3 3 5 5 4 5 4 3 2 3 3 3 4 6 8 9 10 10 10 8 11 9 10 11 10 13 12 10 10 9 9 10 10
7 3 2 1 3 4 3 2 3 7 6 7 10 7 11 11 10 12 15 17 16 15 11 12 11 9 8 7 6 3 3 3 4 5 6 8 8 10 11 11 11 11 10 10 10 10 11 11 11 11 9 9 9 10 11 10 9 8 9 9 7 7 7 6 7 5 3 3 4 4 3 3 2 1 2 3 4 4 7 8 8 9 10 10 10 10 11 10 9 9 11 11 9 8 10 9 9
1 2 2 2 1 1 1 1 4 3 7 8 6 6 4 8 1 12 16 13 14 13 11 12 9 7 2 2 2 2 0 1 2 3 4 6 7 8 8 9 9 10 10 10 10 10 10 10 11 11 10 9 9 12 9 10 8 8 8 9 8 7 7 6 6 5 5 4 5 3 3 3 2 1 2 2 3 4 6 7 8 8 9 9 8 9 10 12 13 13 11 10 9 8 8 7 8
3 3 4 5 5 3 2 2 3 4 4 10 6 8 4 16 8 6 7 9 10 9 11 9 4 4 5 4 3 2 1 1 1 2 2 2 3 4 5 6 9 9 9 9 10 10 10 10 11 11 11 9 8 11 9 10 9 7 8 9 12 9 5 5 6 6 5 5 6 5 3 4 3 3 2 2 4 3 6 6 7 9 10 10 9 9 11 12 12 11 13 12 9 9 7 7 8
9 7 7 5 3 2 1 1 2 2 6 12 8 11 4 10 8 9 8 8 9 10 6 5 5 5 5 4 4 3 2 2 1 1 1 1 1 2 5 7 8 9 8 10 10 10 10 10 11 12 11 9 8 10 11 10 9 8 8 8 10 9 10 7 6 5 5 6 6 5 5 4 4 4 3 3 3 4 4 4 6 7 8 8 9 8 10 11 11 11 10 9 9 10 8 6 6
7 4 5 4 2 2 3 3 2 4 9 1 6 8 9 5 4 6 8 2 5 5 7 0 2 3 5 5 4 4 3 3 2 2 3 4 3 3 4 6 8 9 9 9 9 9 10 10 10 11 11 10 8 9 10 10 8 8 8 9 12 7 8 5 7 7 8 9 8 8 5 4 5 4 4 5 5 5 5 5 5 5 6 7 8 6 7 8 8 7 8 7 7 7 5 7 6
3 6 6 4 2 3 4 4 6 8 8 2 2 2 4 16 17 3 4 4 6 8 5 4 5 4 4 6 5 4 3 3 3 3 3 4 5 5 5 6 7 9 9 10 9 9 9 10 11 11 11 11 9 9 10 10 9 8 8 8 6 6 6 7 8 6 7 8 7 7 7 6 5 5 6 7 7 8 7 8 8 7 7 7 7 7 7 8 7 7 7 7 7 6 5 6 5
9 9 8 6 7 7 8 8 4 4 2 1 3 1 8 13 13 15 17 12 9 6 2 3 4 5 5 4 6 5 4 4 3 3 3 4 4 5 6 7 7 8 9 9 9 9 8 8 10 10 11 11 11 10 11 11 11 9 8 7 6 6 7 6 6 8 8 6 7 8 8 8 8 10 10 10 8 10 8 8 9 8 7 6 6 6 7 6 7 6 6 6 6 5 4 4 5
12 8 10 8 6 5 7 5 7 5 5 3 3 2 5 2 2 4 5 6 9 10 8 5 4 6 5 3 4 6 7 6 4 3 4 5 6 7 7 7 7 8 9 10 9 9 9 8 9 10 11 12 13 11 10 11 10 10 9 8 6 6 6 6 6 5 7 7 7 7 7 5 5 7 9 7 8 8 9 8 8 7 7 7 6 6 5 6 6 5 5 5 5 4 5 5 5
8 7 6 8 12 6 10 2 3 2 0 1 4 6 4 7 4 2 1 5 5 6 8 7 9 9 6 6 7 8 7 7 6 5 6 6 7 8 7 8 8 8 10 10 11 10 10 9 9 11 11 12 12 12 10 10 10 9 10 10 9 7 6 5 4 4 5 5 6 7 8 9 7 8 6 7 8 9 8 8 8 6 7 7 6 6 7 6 5 6 6 6 6 4 6 7 6
8 7 8 8 7 3 2 1 3 1 2 10 4 7 11 10 19 21 14 9 9 7 5 5 7 10 7 7 11 6 5 6 6 8 7 7 7 7 7 8 8 9 10 11 11 11 12 10 10 12 12 12 13 13 12 10 10 10 11 10 7 8 8 8 7 8 7 7 5 5 3 4 5 6 5 6 8 6 6 6 6 6 6 6 6 7 7 6 7 6 6 7 7 5 7 7 6
7 7 8 6 4 5 3 7 2 4 10 7 4 11 13 6 12 6 7 11 12 11 9 11 11 8 8 8 12 5 6 6 7 6 5 6 7 8 8 8 9 10 11 11 12 11 10 10 11 12 12 14 13 12 12 11 10 10 10 10 9 8 7 7 7 7 6 6 5 3 3 3 4 4 5 5 7 6 6 6 5 5 5 6 6 6 6 7 7 6 7 7 6 7 7 6 6
3 2 3 7 4 7 8 3 8 9 9 7 10 14 14 14 16 4 4 9 10 11 11 11 10 10 10 13 6 6 7 5 5 6 5 6 7 8 8 8 9 9 10 10 10 11 10 11 11 12 13 13 12 11 11 9 10 8 7 9 10 8 7 7 6 5 6 7 7 6 6 5 3 4 5 5 7 7 6 6 6 6 6 6 6 6 7 7 7 8 7 7 7 7 8 8 5
1 1 3 2 2 8 9 9 3 5 11 7 10 11 12 11 12 13 17 15 12 10 11 10 11 10 12 11 3 6 6 6 5 6 6 6 6 7 7 8 9 10 10 10 11 11 12 12 12 11 11 11 12 13 12 11 10 8 7 8 7 7 7 7 7 7 6 6 5 8 7 6 6 5 5 6 7 7 7 8 6 6 7 6 7 7 7 7 7 7 7 7 7 8 9 8 7
7 5 9 5 4 3 5 3 7 7 7 9 7 11 9 10 7 12 11 10 10 9 7 6 7 12 9 2 1 2 4 5 6 6 5 5 6 6 6 6 6 7 7 8 9 11 11 11 12 12 13 13 13 12 12 11 10 10 10 11 9 8 8 8 7 6 5 6 6 8 7 6 5 5 6 7 8 8 7 7 8 7 8 7 8 8 7 7 7 8 7 8 9 9 10 8 8
14 15 15 15 11 8 8 8 3 0 5 5 6 11 10 13 5 6 7 8 3 1 3 6 8 8 2 1 1 0 2 4 5 5 4 4 5 5 5 5 4 6 7 9 9 9 10 11 10 11 11 11 12 12 11 11 10 9 11 10 10 8 8 8 9 8 8 7 7 8 7 6 7 6 7 7 8 8 7 7 8 8 7 7 8 8 8 7 9 9 9 7 8 9 9 9 8
Wind_Direction
281 240 242 244 249 252 275 211 240 149 231 87 122 208 100 93 87 157 124 161 167 65 48 128 2 205 327 2 344 344 24 347 24 325 30 105 155 117 121 133 132 142 137 137 136 146 147 126 114 125 136 138 126 123 115 117 116 113 110 112 112 112 109 110 103 99 92 86 81 77 74 72 73 73 73 73 73 72 72 75 79 82 82 83 88 86 89 96 91 84 81 76 71 67 65 64 62
266 290 246 228 241 255 210 136 270 162 147 138 72 52 111 117 198 162 141 78 45 81 91 59 157 27 17 342 318 301 83 42 29 73 84 112 138 114 109 148 154 149 142 140 143 144 140 132 75 143 136 126 126 122 123 125 122 118 113 113 113 107 106 107 104 101 94 86 80 77 75 74 74 74 75 75 74 73 71 76 80 80 85 88 89 90 83 76 79 84 83 80 76 74 70 67 64
294 281 205 216 228 238 300 220 262 45 233 103 100 79 127 153 170 104 72 71 85 97 85 86 85 169 232 260 271 329 77 90 85 86 107 138 147 144 149 148 160 157 144 141 140 149 144 123 98 150 127 124 123 121 120 121 122 116 113 113 112 113 116 111 104 99 91 84 80 77 76 75 74 74 74 74 75 74 71 73 79 83 86 87 90 91 91 91 90 84 80 80 78 76 75 71 66
277 296 272 234 230 203 236 224 321 302 51 50 125 121 147 152 96 92 85 89 96 105 119 127 177 53 294 253 11 285 124 103 70 110 121 173 103 131 138 152 163 158 144 141 146 138 130 118 124 156 133 131 128 122 121 122 121 123 121 118 117 116 113 108 106 99 93 88 84 80 78 77 76 76 76 76 77 77 73 74 80 82 87 89 92 95 94 88 83 82 82 82 80 77 75 73 67
262 222 263 269 285 216 296 2 329 272 44 17 72 130 130 124 115 111 98 101 103 112 143 110 200 113 338 310 323 321 72 95 101 8 123 93 132 127 139 147 169 156 154 152 148 141 113 109 128 166 141 132 128 121 120 123 122 122 122 122 125 122 117 117 112 104 99 94 88 83 82 82 81 82 81 81 81 81 76 73 80 84 85 87 94 93 92 93 87 83 84 83 80 74 73 70 67
251 245 210 262 275 1 257 216 179 84 46 338 64 116 134 114 126 117 117 120 104 101 29 186 338 117 191 197 15 342 30 180 119 79 110 130 84 135 146 162 163 164 155 152 150 149 132 112 115 168 139 132 125 121 116 120 123 122 123 122 118 120 121 121 114 109 104 97 90 87 86 86 86 85 85 85 85 82 82 80 81 85 87 87 85 80 81 85 88 86 78 77 77 76 74 71 69
248 213 178 205 196 235 266 360 69 55 80 341 54 118 134 126 120 130 132 124 137 106 146 236 274 244 226 118 162 62 86 74 159 92 40 115 128 153 154 172 164 158 157 154 153 134 121 110 114 152 141 129 133 125 128 128 122 122 122 124 124 125 126 122 117 111 106 96 89 87 85 84 85 85 86 87 86 86 86 85 87 84 89 92 86 89 91 87 86 83 82 79 78 79 76 72 69
283 272 145 234 161 245 270 11 56 357 92 28 33 94 130 127 139 145 148 181 154 191 172 209 257 272 46 258 259 100 98 64 76 111 121 156 142 159 173 174 167 159 162 154 150 108 109 90 90 151 159 144 139 143 135 136 130 130 126 128 130 128 128 124 120 114 108 100 93 89 85 85 85 85 86 87 88 90 91 90 88 93 93 88 84 81 84 86 86 87 85 85 84 83 79 74 70
213 256 108 260 202 226 216 68 67 67 104 125 132 46 49 138 157 154 157 113 128 134 157 179 200 244 104 157 58 128 109 118 106 91 113 133 153 158 174 185 172 161 166 161 146 134 128 91 74 68 151 146 146 150 143 139 139 138 137 138 133 133 127 127 123 116 109 104 98 94 91 90 90 91 92 91 91 90 92 95 96 94 90 96 99 97 91 89 89 89 88 90 90 86 80 75 70
203 254 190 253 357 201 288 132 206 88 97 119 133 154 147 150 162 200 157 160 128 166 98 95 159 274 56 187 127 169 135 133 127 123 135 140 149 165 179 215 176 168 166 163 147 146 123 104 82 78 71 154 146 148 154 147 141 141 147 140 133 131 130 128 123 119 115 109 103 100 99 98 97 98 98 98 97 95 94 94 96 96 98 92 90 89 88 94 94 94 97 95 91 84 80 75 69
212 190 324 244 212 224 245 111 114 148 138 146 140 136 157 164 172 180 190 141 120 168 114 151 199 226 217 173 63 66 107 133 153 145 144 137 155 164 187 192 179 176 167 167 146 141 140 142 96 89 86 70 65 131 139 157 152 150 151 143 134 133 134 133 127 124 120 114 110 105 101 101 102 102 103 102 101 100 97 96 95 99 100 102 101 98 97 97 100 100 100 98 91 85 80 75 70
229 208 187 245 241 272 62 36 93 110 132 159 167 151 158 167 178 190 185 193 172 193 184 171 41 351 225 198 123 140 140 148 153 127 137 149 171 169 187 170 180 184 166 164 164 151 157 147 153 108 88 72 80 63 54 149 158 158 143 145 135 132 139 135 131 130 126 121 114 110 108 107 106 105 104 105 104 104 104 102 103 102 102 100 99 100 101 100 102 102 100 96 89 86 82 77 72
276 194 210 252 5 240 57 286 109 87 187 191 160 156 152 172 188 194 182 209 167 191 193 187 54 248 241 175 88 128 158 153 135 126 140 168 147 146 223 126 219 193 160 168 174 157 160 161 161 165 122 120 99 86 59 34 167 149 130 135 139 134 138 139 137 134 130 127 120 114 109 106 106 107 107 106 106 106 107 107 108 108 107 106 104 102 98 97 96 97 96 91 89 87 84 78 73
281 231 253 242 47 281 267 4 72 240 205 135 129 138 165 180 198 203 182 196 186 205 56 78 188 340 266 107 153 161 159 143 123 128 141 154 151 175 162 174 133 130 131 150 148 164 169 167 170 162 159 178 159 132 101 77 31 120 131 133 127 127 140 141 138 136 130 122 107 104 106 106 107 107 107 108 107 106 105 106 109 109 107 103 101 98 96 95 94 94 94 92 90 86 82 78 72
283 323 257 296 221 242 156 252 223 222 89 131 132 152 165 177 121 168 214 215 111 64 116 39 351 244 78 240 138 170 145 138 133 126 142 151 153 157 162 158 162 117 138 133 128 127 172 186 180 174 179 188 178 182 174 106 61 16 145 135 136 136 131 127 119 121 122 119 111 105 101 97 94 96 95 98 96 98 100 103 106 106 107 105 104 102 100 98 98 97 96 93 90 86 81 77 72
315 265 239 237 232 236 153 227 210 264 132 131 146 147 170 147 188 200 142 3 74 63 166 169 188 282 350 31 77 83 115 127 129 134 145 154 154 150 157 161 156 151 131 165 153 134 154 187 190 188 193 185 190 180 180 169 84 43 30 144 141 136 127 119 120 120 121 120 113 112 109 107 103 96 101 98 95 98 101 105 106 109 110 108 107 105 102 101 100 100 98 94 88 83 78 72 68
278 277 222 230 236 205 139 216 166 228 92 107 145 157 179 175 159 17 32 295 241 154 197 162 187 179 7 76 96 111 117 117 130 143 155 163 167 163 166 186 159 161 164 136 171 173 177 167 172 178 194 193 187 181 183 173 107 111 148 91 135 127 120 120 121 118 124 121 128 129 135 129 124 122 119 111 104 97 101 106 110 112 111 109 106 104 103 101 100 99 97 94 90 84 76 69 61
253 218 236 228 256 210 145 224 191 36 234 136 169 174 192 168 163 163 162 207 238 151 214 181 159 201 81 115 125 121 129 137 150 161 170 174 185 180 187 195 195 192 183 187 141 184 190 188 172 173 178 192 202 188 188 187 143 138 211 169 163 140 131 134 144 148 144 147 141 156 153 143 143 139 119 119 111 109 98 99 104 109 110 108 107 105 104 102 101 102 102 102 101 101 99 87 74
224 230 236 253 224 62 17 334 50 256 32 139 162 179 203 164 163 151 209 201 199 217 220 202 211 198 145 136 134 152 147 154 162 177 177 184 188 190 192 196 202 197 199 191 183 178 181 187 199 185 176 181 179 190 197 195 173 166 214 182 171 169 153 159 164 157 172 164 168 181 165 159 151 134 140 112 106 91 97 101 102 104 106 105 106 105 104 105 104 103 103 101 101 107 90 87 79
212 277 224 237 57 72 47 21 80 49 6 146 157 168 216 102 192 129 217 235 192 225 225 196 221 210 188 163 156 153 165 162 175 185 189 194 195 194 193 196 203 207 198 193 177 176 178 186 206 204 182 168 178 183 178 189 186 184 189 190 187 182 173 179 173 178 174 175 183 195 154 160 157 115 95 106 111 116 98 87 91 92 95 100 105 103 102 101 106 108 116 132 125 91 86 81 77
102 234 262 28 3 178 76 62 69 59 2 184 162 148 198 151 181 182 203 239 231 239 241 235 211 222 190 167 162 161 170 175 183 194 200 202 202 200 200 197 198 203 199 183 184 179 190 190 188 174 189 191 194 178 183 176 191 195 196 194 192 191 174 188 181 187 175 188 194 219 166 144 139 130 135 138 140 132 130 125 122 125 123 122 124 118 122 128 126 128 132 109 92 90 86 81 78
236 236 36 359 33 289 71 77 45 36 345 185 139 163 203 116 170 220 227 229 236 277 239 220 257 21 138 160 169 168 176 180 187 195 204 206 203 201 199 198 199 203 195 197 199 197 197 196 187 181 181 198 204 194 198 176 190 199 211 207 197 194 195 200 197 183 185 193 205 249 190 152 156 141 154 157 145 145 147 147 145 139 139 137 138 134 142 142 135 124 112 100 91 88 81 74 69
232 139 96 43 20 13 54 116 54 310 120 163 182 172 94 176 215 215 231 235 234 71 48 51 66 73 127 158 161 177 184 189 192 198 201 206 207 208 199 196 197 198 187 199 182 198 195 192 180 174 185 191 204 216 212 152 200 202 208 223 215 194 198 201 203 189 191 196 199 195 212 163 141 155 163 164 157 159 160 156 149 146 151 152 152 149 148 142 128 116 102 97 96 92 87 81 76
288 79 123 79 11 46 35 48 50 271 294 79 28 19 237 199 238 158 239 240 248 98 95 81 84 108 142 162 175 185 191 194 199 202 203 208 208 207 205 198 200 189 185 192 191 190 184 186 180 182 188 194 195 200 210 206 196 176 186 226 231 220 205 200 197 203 194 200 189 209 207 177 169 167 172 169 171 171 165 154 150 152 160 161 155 149 147 133 119 110 108 105 104 97 95 91 88
235 159 127 92 76 82 74 73 133 139 279 347 292 244 242 236 278 14 248 247 241 232 141 136 127 127 158 194 188 196 199 201 204 203 204 213 215 210 208 209 195 190 196 198 193 189 178 183 181 188 190 200 212 210 218 219 222 192 187 211 223 226 229 211 205 196 197 197 191 195 183 193 183 175 173 179 179 175 161 152 155 159 161 154 151 147 140 126 115 114 117 116 109 101 96 94 93
337 91 115 123 105 102 101 122 121 154 102 230 221 243 212 65 20 263 258 251 241 222 167 189 189 199 196 203 204 202 204 205 203 199 202 201 211 209 205 206 200 201 198 194 190 194 185 183 186 194 199 199 208 222 220 226 223 219 210 215 221 198 225 229 204 203 197 195 194 200 194 198 184 179 167 174 182 170 165 165 156 150 144 130 133 131 113 118 121 120 116 116 113 103 94 92 96
101 124 124 129 119 130 177 166 134 136 97 182 242 234 214 123 211 263 228 237 119 178 230 217 221 233 224 215 214 212 212 209 202 198 191 198 202 208 205 201 205 201 191 194 195 193 187 184 192 201 205 209 208 213 224 233 227 226 221 215 214 209 207 224 214 207 194 200 191 195 204 206 187 173 167 165 176 157 175 168 144 118 98 86 81 91 102 118 123 124 124 120 116 108 100 97 95
123 125 124 123 151 164 151 181 150 189 158 208 267 274 278 196 193 240 180 128 170 208 226 222 226 237 238 225 214 213 218 217 203 194 197 194 199 200 202 200 202 201 198 198 195 192 184 185 186 195 201 196 210 219 226 234 238 238 232 218 211 205 209 208 205 202 200 203 187 193 202 212 222 179 163 172 161 167 176 153 136 129 110 97 101 114 117 100 96 94 89 92 99 104 104 99 95
136 196 190 157 169 195 177 191 165 223 137 208 232 280 256 211 233 238 203 140 160 191 212 217 223 230 232 234 220 208 213 211 202 202 207 206 202 199 208 206 200 198 201 201 196 193 192 191 198 201 203 204 204 217 223 223 226 228 231 226 220 205 213 211 224 200 209 188 181 204 214 203 199 194 168 170 163 173 156 144 134 123 119 118 110 117 108 94 92 100 96 101 101 103 103 101 96
166 195 279 172 201 226 171 129 142 225 115 183 222 261 240 221 229 230 136 166 167 226 241 236 238 230 226 220 222 222 213 204 207 210 208 208 205 204 207 202 200 197 193 194 196 194 189 186 189 197 202 209 213 221 221 223 222 224 223 222 224 215 206 213 218 230 221 201 184 199 201 210 200 238 184 161 168 169 153 145 139 134 130 130 125 126 120 119 121 125 123 116 113 112 108 106 105
204 151 257 251 202 189 143 190 142 221 117 185 222 258 268 331 132 112 117 145 211 241 243 243 241 236 228 223 225 229 225 213 215 210 208 206 207 204 203 198 194 194 188 193 197 193 192 181 177 190 190 204 204 217 222 227 226 223 217 220 221 224 212 209 211 209 202 201 201 207 206 201 200 203 196 161 166 161 154 142 137 134 137 133 132 137 132 132 140 137 139 129 125 107 105 104 104
191 180 212 208 237 119 139 153 180 225 140 203 194 256 259 265 111 92 95 151 213 243 250 251 249 244 236 231 229 233 234 222 219 218 206 203 203 199 195 195 189 192 193 191 189 190 197 189 181 193 186 200 206 210 217 221 225 226 221 209 203 247 228 208 230 218 217 208 201 198 200 198 190 190 159 146 143 160 157 151 149 141 140 134 136 137 139 137 144 134 130 134 122 110 111 105 101
205 237 204 191 217 165 168 169 147 1 124 180 213 259 320 155 112 137 132 172 211 236 255 255 253 253 250 236 233 239 238 227 219 214 206 197 201 198 193 195 190 193 194 189 188 188 196 191 184 195 195 196 203 200 203 214 220 218 211 116 179 243 225 212 212 214 208 211 205 193 195 194 185 189 168 158 145 154 147 154 160 154 143 145 146 147 143 144 145 135 126 121 120 121 112 109 104
205 208 249 197 213 207 235 103 189 166 240 212 210 244 249 273 275 178 165 178 180 230 246 254 257 257 253 246 238 234 232 228 224 212 205 198 196 196 193 194 192 191 197 195 191 189 192 190 186 192 194 192 193 186 195 208 218 217 205 195 200 203 233 216 201 189 196 187 196 198 199 189 192 190 180 171 167 164 158 157 151 149 147 146 148 151 150 148 146 132 118 109 113 116 117 116 110
211 191 222 218 228 250 283 190 138 199 181 253 241 238 255 257 265 274 265 195 210 242 253 259 262 261 262 256 245 241 237 231 229 216 199 195 193 189 189 187 190 190 193 195 191 190 189 189 182 185 189 185 185 178 186 201 208 203 197 191 192 201 210 200 142 170 169 181 190 190 181 190 190 197 170 171 172 167 166 159 148 146 154 153 146 150 149 147 140 132 130 110 85 86 114 112 114
350 211 230 280 236 190 225 115 131 227 226 235 241 255 266 258 261 259 255 261 257 255 254 256 256 256 254 250 248 243 237 238 229 212 194 184 186 183 185 184 187 187 189 191 189 188 188 183 180 180 186 184 186 180 184 196 200 196 193 193 199 198 184 166 164 159 158 175 159 179 178 177 188 179 169 158 153 145 134 137 136 150 151 153 151 153 153 153 148 133 131 126 116 97 96 117 122
2 318 293 273 278 282 104 102 80 156 278 256 256 263 267 267 267 270 275 277 271 267 254 254 250 247 243 242 243 241 239 242 201 182 175 177 176 178 181 182 186 185 189 188 187 187 187 183 180 183 181 180 183 187 190 192 193 198 204 199 204 187 169 158 169 162 171 160 153 158 165 171 167 179 139 139 143 141 132 134 146 150 153 157 158 157 149 142 134 136 126 127 128 117 112 131 134
286 285 280 257 217 267 70 109 148 144 268 281 283 282 274 274 271 270 272 270 267 260 254 247 248 246 243 241 243 241 242 225 147 162 174 173 174 176 177 183 186 185 191 189 190 186 185 184 185 183 181 184 188 195 192 201 202 199 194 195 193 173 159 176 178 169 172 148 154 161 170 162 173 172 144 136 147 150 143 142 146 153 151 149 137 127 131 135 137 144 134 111 87 126 137 155 158
229 260 265 275 259 272 114 89 125 155 217 268 286 282 280 280 278 272 262 258 262 261 252 253 256 253 248 245 246 249 244 231 191 197 178 180 176 176 181 189 193 198 190 191 188 184 186 187 187 184 180 181 188 194 201 202 199 201 203 204 198 145 119 88 115 130 143 160 157 157 155 164 153 153 152 148 152 156 159 151 156 157 159 153 146 144 147 152 153 156 154 140 136 122 128 171 171
238 219 235 239 44 354 236 106 144 183 237 296 305 294 280 278 270 261 251 242 250 258 259 259 256 256 251 248 248 250 248 243 233 213 186 176 173 178 184 190 194 193 192 189 190 188 187 190 186 186 180 181 187 193 202 204 199 160 62 100 135 122 147 115 93 88 119 146 167 154 169 167 170 161 160 157 154 159 164 164 156 161 161 161 154 152 155 148 142 153 151 145 141 139 161 179 202
217 237 242 256 242 247 258 347 280 194 232 309 280 276 261 246 256 262 253 240 243 254 259 258 248 243 250 261 257 247 252 249 243 235 197 168 173 186 189 188 188 192 194 191 189 188 189 192 187 186 177 180 184 188 197 192 118 117 119 84 92 91 84 143 142 170 179 177 159 173 187 169 143 160 159 165 167 166 166 168 161 158 157 161 154 152 158 162 162 162 163 156 164 153 159 171 181
225 208 228 250 268 285 270 340 343 281 251 152 292 316 287 177 214 250 282 189 227 228 230 239 236 232 228 236 240 241 238 240 248 245 228 177 181 182 184 184 188 193 195 196 191 191 187 187 184 182 172 175 183 189 186 152 171 162 156 161 170 174 172 180 193 186 175 182 189 168 134 152 125 122 130 167 174 173 173 171 166 158 158 161 163 154 151 152 162 165 173 167 165 170 156 157 165
257 245 243 245 258 301 314 305 317 278 291 115 265 308 281 239 264 260 256 258 263 259 238 246 249 249 233 224 234 237 237 237 225 229 232 202 186 180 184 184 189 193 196 188 190 191 187 183 182 179 176 177 179 188 173 175 170 176 175 183 181 186 176 189 180 159 169 176 165 151 149 140 118 146 122 148 155 170 174 168 167 165 159 157 160 153 160 170 172 172 169 174 173 164 162 164 171
236 40 318 307 247 228 264 297 267 278 324 269 188 224 274 277 245 240 246 254 263 266 263 259 258 252 239 236 234 244 251 245 239 234 227 227 202 191 190 186 187 192 186 185 186 185 184 182 178 181 181 175 182 188 183 187 186 180 183 184 189 192 191 176 176 159 130 132 138 142 140 143 106 112 133 109 126 128 167 167 166 164 165 169 160 170 169 172 173 174 174 174 169 173 173 170 172
43 50 10 87 134 98 137 237 293 316 331 297 168 200 246 261 194 203 216 234 245 251 252 255 252 246 252 161 106 70 336 309 264 233 235 224 220 207 196 185 185 184 184 182 183 181 181 182 182 184 185 179 182 188 179 186 189 185 185 193 195 197 192 178 157 141 144 124 145 129 134 125 111 64 69 88 89 130 171 165 165 166 162 171 178 170 170 175 177 174 174 180 180 178 180 174 170
131 147 84 86 82 70 125 301 294 308 310 272 171 183 250 283 270 179 198 215 228 236 245 251 212 133 135 134 107 127 162 203 233 273 272 244 220 201 196 175 176 180 180 179 177 178 182 184 185 186 188 184 177 180 179 189 191 186 190 193 201 193 159 115 133 143 137 143 161 161 141 138 146 157 140 82 136 129 175 168 176 181 177 175 184 182 173 175 179 178 178 181 178 174 178 184 178
134 149 114 110 97 133 187 274 279 298 254 264 168 181 205 288 295 179 161 196 208 219 205 155 132 131 118 115 128 141 126 152 155 172 137 118 75 163 170 174 175 174 176 179 181 183 183 185 186 190 191 187 180 182 183 191 191 198 200 199 199 185 180 151 138 139 142 155 164 160 163 161 157 161 135 137 165 153 174 183 190 188 185 174 181 174 174 175 176 177 176 175 174 173 181 168 167
164 156 165 158 185 166 219 210 151 234 254 58 139 179 195 232 283 151 178 184 297 262 142 25 244 161 143 142 151 142 152 137 150 164 160 158 141 156 167 178 177 175 176 181 182 182 184 185 185 189 193 196 190 186 183 187 192 196 202 209 211 186 176 159 166 165 167 174 175 171 165 155 158 147 159 165 174 179 172 178 194 195 190 180 186 173 170 173 163 161 162 162 164 172 159 156 162
220 174 179 206 225 159 224 176 218 206 244 119 360 141 248 234 244 239 190 264 228 267 299 294 285 287 144 155 155 166 163 175 170 165 165 167 170 169 176 185 179 180 181 184 184 184 187 190 188 190 197 198 196 190 186 186 191 197 200 202 189 164 167 178 186 171 169 175 173 167 168 172 161 167 186 183 185 179 179 178 187 192 190 191 181 171 168 166 162 158 163 167 165 159 149 150 150
194 195 183 187 229 227 242 217 223 249 136 98 116 62 253 273 282 250 249 235 229 221 226 244 257 266 264 164 168 174 186 192 179 171 172 176 175 168 172 183 185 185 183 185 185 186 188 192 190 194 201 202 205 202 190 188 192 196 199 197 183 164 181 178 186 188 184 182 177 176 178 179 178 185 180 192 182 175 185 188 184 189 189 174 167 162 155 149 154 156 152 150 131 130 109 115 109
200 205 193 205 216 223 237 215 228 219 254 83 195 128 242 242 326 3 276 261 258 274 283 284 256 255 263 217 181 186 194 194 188 195 189 185 182 173 172 180 183 186 183 185 185 189 190 194 195 200 205 201 210 208 197 194 191 194 193 193 183 171 176 174 183 179 173 183 186 184 186 183 188 189 187 183 167 173 184 180 182 183 171 160 153 139 129 132 141 130 127 115 109 102 104 101 99
198 214 230 237 235 232 255 319 334 337 344 183 184 231 260 230 16 207 339 293 270 254 257 247 257 260 243 259 238 213 194 193 184 215 210 192 182 176 170 177 182 182 185 182 187 186 189 194 198 203 207 209 206 212 206 199 195 193 195 195 190 178 176 175 184 179 180 186 185 184 184 187 190 183 175 169 155 168 175 169 170 164 146 145 141 134 136 137 134 125 112 106 96 87 104 99 100
175 169 213 209 31 244 274 120 112 64 296 256 225 259 255 280 273 256 215 197 208 203 220 234 251 257 258 238 254 220 157 169 189 213 205 183 178 182 178 177 180 183 183 186 187 187 188 188 196 202 205 210 210 211 212 200 197 192 196 194 177 175 178 187 189 186 185 190 187 202 190 185 165 169 155 143 147 156 159 157 149 136 132 132 131 137 135 125 125 117 117 115 111 107 106 103 100
111 210 206 71 36 11 225 250 183 219 246 259 213 241 273 272 283 46 191 215 234 241 232 237 238 242 248 246 249 188 154 178 203 204 193 179 180 185 181 183 187 187 185 186 187 185 188 190 193 201 202 207 207 201 206 203 196 196 194 191 190 181 181 185 188 183 173 172 178 160 179 185 180 152 143 147 151 146 137 138 130 131 131 131 130 125 122 124 121 110 113 110 113 113 106 94 95
291 272 77 167 203 222 210 235 240 245 242 263 241 250 250 244 253 223 176 185 216 221 225 227 232 232 239 247 226 124 157 178 186 199 183 179 184 187 184 185 189 189 189 188 185 184 187 191 196 201 203 205 203 196 202 201 198 194 188 185 190 183 178 187 180 154 159 162 170 176 185 184 120 120 141 132 145 140 139 137 138 137 134 131 127 126 125 124 120 117 116 114 118 120 114 109 98
254 340 231 253 292 232 200 199 238 226 251 241 259 256 261 238 249 257 258 254 249 240 233 232 230 233 232 240 182 162 166 178 187 197 196 186 182 184 182 185 186 189 189 189 186 185 189 190 193 199 203 203 200 196 198 199 194 190 176 177 184 175 178 178 179 154 149 161 159 175 180 179 171 153 154 154 152 148 150 149 148 142 142 136 131 126 128 125 121 121 125 123 126 121 114 113 108
181 218 223 185 211 23 335 258 217 220 239 247 268 267 260 258 241 253 259 249 253 255 240 231 229 235 245 223 110 154 167 171 186 196 185 174 164 164 170 177 184 189 192 191 194 193 189 189 193 195 199 201 204 200 200 203 192 191 182 186 184 175 181 186 174 156 155 163 165 183 186 178 137 160 158 159 160 158 158 157 150 151 148 146 136 131 128 130 127 127 123 126 127 124 120 117 118
184 189 206 202 185 200 216 243 183 214 229 243 257 263 282 270 224 249 263 260 239 176 261 259 252 263 281 106 96 173 186 190 184 173 154 140 143 149 149 158 172 193 198 200 199 194 195 196 194 195 199 202 201 201 199 198 193 191 188 182 178 182 182 186 187 175 182 183 181 184 181 159 168 166 166 163 161 159 159 156 156 145 144 140 133 133 139 138 135 130 123 129 131 127 123 124 124